Ketchikan, AK

9:39 AM AKST on November 13, 2018 (GMT -0900)
Ketchikan International

Weather History for PAKT - November, 2017

Change the Weather History Date:

Thursday, November 16, 2017

  Actual Average Record
Temperature  
Mean Temperature 28 °F -  
Max Temperature 33 °F 44 °F 52 °F (1949)
Min Temperature 24 °F 33 °F 16 °F (1973)
Degree Days  
Heating Degree Days 36    
Moisture  
Dew Point 17 °F    
Average Humidity 58    
Maximum Humidity 78    
Minimum Humidity 48    
Precipitation  
Precipitation 0.00 in - - ()
Sea Level Pressure  
Sea Level Pressure 29.62 in    
Wind  
Wind Speed 8 mph (WNW)    
Max Wind Speed 12 mph    
Max Gust Speed -    
Visibility 10 miles    
Events      
Averages and records for this station are not official NWS values.
T = Trace of Precipitation, MM = Missing Value Source: NWS Daily Summary

Daily Weather History Graph

Daily Weather History Graph

Search for Another Location

Airport or City:

Astronomy

Nov. 16, 2017 Rise Set
Actual Time 7:23 AM AKST 3:39 PM AKST
Civil Twilight 6:41 AM AKST 4:21 PM AKST
Nautical Twilight 5:56 AM AKST 5:06 PM AKST
Astronomical Twilight 5:13 AM AKST 5:49 PM AKST
Moon 5:00 AM AKST (11/16) 3:35 PM AKST (11/16)
Length of Visible Light 9h 39m
Length of Day
8h 16m
Waning Crescent, 2% of the Moon is Illuminated
Nov 16
Waning Crescent
Nov 18
New
Nov 26
First Quarter
Dec 3
Full
Dec 9
Last Quarter

Hourly Weather History & Observations

Time (AKST) Temp. Windchill Dew Point Humidity Pressure Visibility Wind Dir Wind Speed Gust Speed Precip Events Conditions
12:53 AM 33.1 °F 24.9 °F 18.0 °F 54% 29.52 in 10.0 mi WNW 10.4 mph - N/A   Overcast
1:53 AM 33.1 °F 24.9 °F 18.0 °F 54% 29.52 in 10.0 mi WNW 10.4 mph - N/A   Overcast
2:53 AM 32.0 °F 23.6 °F 17.1 °F 54% 29.53 in 10.0 mi WNW 10.4 mph - N/A   Overcast
3:53 AM 32.0 °F 24.8 °F 17.1 °F 54% 29.53 in 10.0 mi WNW 8.1 mph - N/A   Overcast
4:53 AM 32.0 °F 23.0 °F 17.1 °F 54% 29.54 in 10.0 mi WNW 11.5 mph - N/A   Overcast
5:53 AM 32.0 °F 24.2 °F 17.1 °F 54% 29.55 in 10.0 mi WNW 9.2 mph - N/A   Overcast
5:59 AM 32.0 °F 24.8 °F 17.1 °F 54% 29.54 in 10.0 mi WNW 8.1 mph - N/A   Overcast
6:53 AM 32.0 °F 24.2 °F 17.6 °F 55% 29.57 in 10.0 mi WNW 9.2 mph - N/A   Overcast
7:53 AM 32.0 °F 24.8 °F 17.6 °F 55% 29.57 in 10.0 mi WNW 8.1 mph - N/A   Overcast
8:53 AM 32.0 °F 24.2 °F 17.6 °F 55% 29.60 in 10.0 mi WNW 9.2 mph - N/A   Mostly Cloudy
9:53 AM 33.8 °F 27.0 °F 17.6 °F 52% 29.61 in 10.0 mi WNW 8.1 mph - N/A   Mostly Cloudy
10:53 AM 33.8 °F 26.4 °F 17.6 °F 52% 29.62 in 10.0 mi NW 9.2 mph - N/A   Overcast
11:53 AM 33.8 °F 27.0 °F 15.8 °F 48% 29.62 in 10.0 mi WNW 8.1 mph - N/A   Scattered Clouds
12:53 PM 33.8 °F 27.0 °F 17.6 °F 52% 29.64 in 10.0 mi WNW 8.1 mph - N/A   Scattered Clouds
1:53 PM 33.8 °F 27.0 °F 15.8 °F 48% 29.65 in 10.0 mi WNW 8.1 mph - N/A   Scattered Clouds
2:53 PM 32.0 °F 25.6 °F 15.1 °F 50% 29.66 in 10.0 mi WNW 6.9 mph - N/A   Clear
3:53 PM 32.0 °F 26.4 °F 15.1 °F 50% 29.68 in 10.0 mi WNW 5.8 mph - N/A   Mostly Cloudy
4:53 PM 30.0 °F 25.2 °F 16.0 °F 56% 29.68 in 10.0 mi West 4.6 mph - N/A   Partly Cloudy
5:53 PM 28.9 °F 23.9 °F 17.1 °F 61% 29.69 in 10.0 mi West 4.6 mph - N/A   Partly Cloudy
6:53 PM 26.6 °F - 17.6 °F 69% 29.69 in 10.0 mi Calm Calm - N/A   Clear
7:53 PM 26.6 °F 22.6 °F 17.6 °F 69% 29.70 in 10.0 mi WSW 3.5 mph - N/A   Clear
8:53 PM 24.8 °F - 17.6 °F 74% 29.71 in 10.0 mi Calm Calm - N/A   Clear
9:53 PM 26.1 °F - 17.1 °F 69% 29.72 in 10.0 mi Calm Calm - N/A   Clear
10:53 PM 28.0 °F 24.2 °F 21.0 °F 75% 29.73 in 10.0 mi SSE 3.5 mph - N/A   Clear
11:53 PM 28.9 °F 25.2 °F 23.0 °F 78% 29.73 in 10.0 mi SSE 3.5 mph - N/A   Overcast